Weather History for Danville, IL

Change the Weather History Date:

Sunday, February 9, 2014

  Actual Average (KLAF) Record (KLAF)
Temperature  
Mean Temperature 13 °F 29 °F  
Max Temperature 20 °F 37 °F 60 °F (1966)
Min Temperature 5 °F 21 °F -15 °F (1975)
Degree Days  
Heating Degree Days 52 36  
Month to date heating degree days 332  
Since 1 July heating degree days 3700  
Cooling Degree Days 0 0  
Month to date cooling degree days 0  
Year to date cooling degree days 0  
Moisture  
Dew Point 10 °F    
Average Humidity 81    
Maximum Humidity 91    
Minimum Humidity 70    
Precipitation  
Precipitation 0.00 in 0.06 in 1.73 in (1959)
Month to date precipitation 0.51  
Year to date precipitation 2.37  
Sea Level Pressure  
Sea Level Pressure 30.16 in    
Wind  
Wind Speed 8 mph (WNW)    
Max Wind Speed 15 mph    
Max Gust Speed 21 mph    
Visibility 9 miles    
Events Snow    
T = Trace of Precipitation, MM = Missing Value Source: NWS Daily Summary

Daily Weather History Graph

Daily Weather History Graph

Search for Another Location

Airport:

Trip Planner

Search our weather history database for the weather conditions in past years. The results will help you decide how hot, cold, wet, or windy it might be!

Date:

Astronomy

Feb. 09, 2014 Rise Set
Actual Time 6:50 AM CST 5:18 PM CST
Civil Twilight 6:22 AM CST 5:47 PM CST
Nautical Twilight 5:50 AM CST 6:19 PM CST
Astronomical Twilight 5:18 AM CST 6:50 PM CST
Moon 12:58 PM CST (2/9) 2:55 AM CST (2/9)
Length of Visible Light 11h 24m
Length of Day
10h 28m
Waxing Gibbous, 77% of the Moon is Illuminated
Feb 9
Waxing Gibbous
Feb 14
Full
Feb 22
Last Quarter
Mar 1
New
Mar 8
First Quarter

Hourly Weather History & Observations

Time (CST) Temp. Windchill Dew Point Humidity Pressure Visibility Wind Dir Wind Speed Gust Speed Precip Events Conditions
12:15 AM 20.3 °F 15.4 °F 17.6 °F 89% 30.09 in 10.0 mi WSW 3.5 mph - N/A   Overcast
12:35 AM 20.3 °F 13.8 °F 17.6 °F 89% 30.09 in 10.0 mi West 4.6 mph - N/A   Overcast
12:55 AM 20.7 °F 13.0 °F 17.6 °F 88% 30.10 in 10.0 mi West 5.8 mph - N/A   Overcast
1:15 AM 20.7 °F 11.9 °F 17.6 °F 88% 30.11 in 10.0 mi West 6.9 mph - N/A   Overcast
1:35 AM 20.7 °F 11.0 °F 17.2 °F 87% 30.11 in 10.0 mi West 8.1 mph - N/A   Overcast
1:55 AM 20.7 °F 10.2 °F 16.7 °F 85% 30.12 in 10.0 mi West 9.2 mph - N/A   Overcast
2:15 AM 20.5 °F 11.7 °F 16.3 °F 84% 30.10 in 10.0 mi West 6.9 mph - N/A   Overcast
2:35 AM 20.3 °F 12.5 °F 16.3 °F 85% 30.09 in 10.0 mi West 5.8 mph - N/A   Overcast
2:55 AM 20.1 °F 13.6 °F 16.3 °F 85% 30.09 in 10.0 mi WNW 4.6 mph - N/A   Overcast
3:15 AM 20.1 °F 12.3 °F 16.2 °F 85% 30.10 in 10.0 mi WNW 5.8 mph - N/A   Overcast
3:35 AM 20.1 °F 12.3 °F 16.3 °F 85% 30.10 in 7.0 mi WNW 5.8 mph - N/A Snow Light Snow
3:55 AM 19.8 °F - 16.7 °F 88% 30.08 in 3.0 mi Calm Calm - N/A Snow Light Snow
4:15 AM 19.4 °F 11.5 °F 17.1 °F 91% 30.09 in 3.0 mi WNW 5.8 mph - N/A Snow Light Snow
4:35 AM 19.4 °F 11.5 °F 17.2 °F 91% 30.09 in 3.0 mi WNW 5.8 mph - N/A Snow Light Snow
4:55 AM 19.2 °F 9.3 °F 17.1 °F 91% 30.09 in 3.0 mi WNW 8.1 mph - N/A Snow Light Snow
5:15 AM 19.2 °F 9.3 °F 16.7 °F 90% 30.09 in 7.0 mi WNW 8.1 mph - N/A Snow Light Snow
5:35 AM 19.2 °F 9.3 °F 16.7 °F 90% 30.10 in 7.0 mi WNW 8.1 mph - N/A Snow Light Snow
5:55 AM 19.0 °F 9.0 °F 16.5 °F 90% 30.10 in 2.5 mi WNW 8.1 mph - N/A Snow Light Snow
6:15 AM 18.5 °F 10.4 °F 16.3 °F 91% 30.09 in 2.0 mi NW 5.8 mph - N/A Snow Light Snow
6:35 AM 18.5 °F 9.3 °F 15.8 °F 89% 30.09 in 3.0 mi NW 6.9 mph - N/A Snow Light Snow
6:55 AM 18.1 °F 8.9 °F 15.4 °F 89% 30.10 in 3.0 mi NW 6.9 mph - N/A Snow Light Snow
7:15 AM 18.1 °F 7.9 °F 15.1 °F 88% 30.10 in 7.0 mi NW 8.1 mph - N/A Snow Light Snow
7:35 AM 17.8 °F 8.5 °F 14.9 °F 88% 30.10 in 7.0 mi NW 6.9 mph - N/A Snow Light Snow
7:55 AM 17.8 °F 5.9 °F 14.5 °F 87% 30.11 in 10.0 mi NW 10.4 mph - N/A   Overcast
8:15 AM 16.3 °F 5.7 °F 13.1 °F 87% 30.12 in 10.0 mi NW 8.1 mph - N/A   Mostly Cloudy
8:35 AM 16.9 °F 4.8 °F 13.1 °F 85% 30.13 in 10.0 mi NW 10.4 mph - N/A   Scattered Clouds
8:55 AM 16.9 °F 4.8 °F 13.1 °F 85% 30.13 in 10.0 mi NW 10.4 mph - N/A   Mostly Cloudy
9:15 AM 16.7 °F 2.6 °F 12.7 °F 84% 30.13 in 10.0 mi NW 13.8 mph - N/A   Overcast
9:35 AM 16.3 °F 3.4 °F 12.0 °F 83% 30.14 in 7.0 mi NW 11.5 mph - N/A   Overcast
9:55 AM 16.2 °F 1.3 °F 10.6 °F 79% 30.15 in 4.0 mi NW 15.0 mph 20.7 mph N/A   Haze
10:15 AM 15.8 °F 1.4 °F 9.5 °F 76% 30.16 in 5.0 mi NW 13.8 mph 19.6 mph N/A   Haze
10:35 AM 15.6 °F 0.6 °F 9.1 °F 76% 30.16 in 3.0 mi NW 15.0 mph - N/A   Haze
10:55 AM 15.8 °F 2.1 °F 9.3 °F 76% 30.15 in 7.0 mi NW 12.7 mph - N/A   Clear
11:15 AM 15.8 °F 1.4 °F 9.0 °F 74% 30.15 in 10.0 mi NW 13.8 mph - N/A   Clear
11:35 AM 15.8 °F 2.1 °F 8.8 °F 74% 30.15 in 10.0 mi WNW 12.7 mph - N/A   Clear
11:55 AM 15.8 °F 2.7 °F 9.0 °F 74% 30.15 in 10.0 mi NW 11.5 mph - N/A   Clear
12:15 PM 15.8 °F 5.1 °F 8.6 °F 73% 30.14 in 10.0 mi NW 8.1 mph - N/A   Clear
12:35 PM 16.2 °F 3.9 °F 8.8 °F 73% 30.14 in 10.0 mi NW 10.4 mph - N/A   Clear
12:55 PM 16.5 °F 3.6 °F 8.4 °F 70% 30.15 in 10.0 mi NW 11.5 mph 17.3 mph N/A   Clear
1:15 PM 16.2 °F 4.7 °F 8.6 °F 72% 30.15 in 10.0 mi WNW 9.2 mph - N/A   Clear
1:35 PM 15.8 °F 5.1 °F 8.6 °F 73% 30.14 in 10.0 mi WNW 8.1 mph - N/A   Clear
1:55 PM 16.2 °F 4.7 °F 8.2 °F 71% 30.13 in 10.0 mi NW 9.2 mph - N/A   Scattered Clouds
2:15 PM 15.4 °F 1.6 °F 7.7 °F 71% 30.14 in 10.0 mi NW 12.7 mph 17.3 mph N/A   Clear
2:35 PM 15.3 °F 2.8 °F 8.2 °F 74% 30.16 in 10.0 mi WNW 10.4 mph - N/A   Clear
2:55 PM 15.3 °F 2.0 °F 7.9 °F 73% 30.16 in 10.0 mi NW 11.5 mph - N/A   Clear
3:15 PM 15.3 °F 2.8 °F 8.4 °F 74% 30.18 in 10.0 mi WNW 10.4 mph - N/A   Clear
3:35 PM 15.3 °F 3.5 °F 8.4 °F 74% 30.19 in 10.0 mi WNW 9.2 mph - N/A   Scattered Clouds
3:55 PM 14.7 °F 2.9 °F 8.1 °F 75% 30.20 in 10.0 mi WNW 9.2 mph - N/A   Scattered Clouds
4:15 PM 14.4 °F 2.4 °F 7.7 °F 75% 30.20 in 10.0 mi WNW 9.2 mph - N/A   Mostly Cloudy
4:35 PM 14.0 °F 2.0 °F 7.7 °F 76% 30.21 in 10.0 mi WNW 9.2 mph - N/A   Mostly Cloudy
4:55 PM 13.6 °F 2.5 °F 7.7 °F 77% 30.22 in 10.0 mi WNW 8.1 mph - N/A   Mostly Cloudy
5:15 PM 12.9 °F 2.6 °F 7.2 °F 78% 30.23 in 10.0 mi WNW 6.9 mph - N/A   Scattered Clouds
5:35 PM 12.2 °F 2.9 °F 6.8 °F 79% 30.23 in 10.0 mi West 5.8 mph - N/A   Clear
5:55 PM 11.7 °F 1.1 °F 6.3 °F 79% 30.23 in 10.0 mi WNW 6.9 mph - N/A   Clear
6:15 PM 12.0 °F 1.5 °F 6.6 °F 79% 30.23 in 10.0 mi WNW 6.9 mph - N/A   Clear
6:35 PM 12.2 °F 1.7 °F 6.8 °F 79% 30.23 in 10.0 mi WNW 6.9 mph - N/A   Clear
6:55 PM 12.2 °F 2.9 °F 6.8 °F 79% 30.23 in 10.0 mi WNW 5.8 mph - N/A   Clear
7:15 PM 12.0 °F 4.1 °F 6.4 °F 78% 30.23 in 10.0 mi WNW 4.6 mph - N/A   Clear
7:35 PM 11.3 °F 0.7 °F 5.9 °F 79% 30.24 in 10.0 mi WNW 6.9 mph - N/A   Clear
7:55 PM 11.7 °F 1.1 °F 5.9 °F 78% 30.25 in 10.0 mi West 6.9 mph - N/A   Clear
8:15 PM 11.3 °F 1.9 °F 5.5 °F 78% 30.25 in 10.0 mi WNW 5.8 mph - N/A   Clear
8:35 PM 11.5 °F 2.1 °F 5.4 °F 76% 30.26 in 10.0 mi WNW 5.8 mph - N/A   Clear
8:55 PM 11.7 °F 2.3 °F 5.0 °F 75% 30.25 in 10.0 mi WNW 5.8 mph - N/A   Clear
9:15 PM 9.7 °F -0.1 °F 3.7 °F 77% 30.25 in 10.0 mi WNW 5.8 mph - N/A   Clear
9:35 PM 8.6 °F -1.3 °F 3.2 °F 79% 30.26 in 10.0 mi WNW 5.8 mph - N/A   Clear
9:55 PM 8.6 °F -3.7 °F 3.0 °F 78% 30.26 in 10.0 mi WNW 8.1 mph - N/A   Clear
10:15 PM 8.6 °F -5.5 °F 3.0 °F 78% 30.26 in 10.0 mi WNW 10.4 mph - N/A   Clear
10:35 PM 8.2 °F -6.8 °F 2.7 °F 78% 30.26 in 10.0 mi WNW 11.5 mph - N/A   Clear
10:55 PM 8.1 °F -7.0 °F 2.3 °F 77% 30.26 in 10.0 mi WNW 11.5 mph - N/A   Clear
11:15 PM 7.0 °F -8.3 °F 0.9 °F 76% 30.27 in 10.0 mi WNW 11.5 mph - N/A   Clear
11:35 PM 6.3 °F -9.2 °F -0.2 °F 75% 30.28 in 10.0 mi WNW 11.5 mph - N/A   Clear
11:55 PM 5.0 °F -10.8 °F -0.8 °F 77% 30.28 in 10.0 mi NW 11.5 mph - N/A   Clear